Regional Weather Roundup
Issued by NWS

Home | Current Version | Previous Version | Graphics & Text | Print | Product List | Glossary On
Versions: 1 2 3 4 5 6 7 8 9 10 11 12 13 14 15 16 17 18 19 20 21 22 23 24 25 26 27 28 29 30 31 32 33 34 35 36 37 38 39 40 41 42 43 44 45 46 47 48 49 50
000
ASUS43 KMPX 310601
RWRMN
WEATHER ROUNDUP FOR MINNESOTA
NATIONAL WEATHER SERVICE TWIN CITIES/CHANHASSEN MN
100 AM CDT TUE MAY 31 2016


NOTE: "FAIR" INDICATES FEW OR NO CLOUDS BELOW 12,000 FEET WITH NO
SIGNIFICANT WEATHER AND/OR OBSTRUCTIONS TO VISIBILITY. N/A MEANS
CURRENT SKY AND/OR WEATHER CONDITIONS ARE NOT AVAILABLE.

MNZ060>063-068>070-310700-
   Twin Cities Metro

CITY           SKY/WX    TMP DP  RH WIND       PRES   REMARKS
TWIN CITIES    CLOUDY    71  57  61 SE15      29.88F
6HR MIN TEMP:  70; 6HR MAX TEMP:  81; 6HR PCP: TRACE;

ST PAUL        CLOUDY    70  58  65 S14       29.89F
CRYSTAL        CLOUDY    72  54  53 SE13      29.84F
BLAINE         CLOUDY    72  55  56 SE10      29.86F
EDEN PRAIRIE   CLOUDY    71  56  58 SE10      29.86F
6HR MIN TEMP:  71; 6HR MAX TEMP:  81;

SOUTH ST PAUL  PTCLDY    71  56  60 SE9G17    29.89F
LAKE ELMO      MOCLDY    70  55  60 SE8       29.91F
$$
MNZ001>005-007-008-013>017-022>024-027-028-310700-
   Northwest Minnesota

CITY           SKY/WX    TMP DP  RH WIND       PRES   REMARKS
BEMIDJI        CLOUDY    62  55  77 E10       29.82F
HALLOCK        LGT RAIN  63  57  82 E16       29.81F
ROSEAU         CLOUDY    63  54  72 E16G23    29.86F
WARROAD        CLOUDY    61  54  77 E16G22    29.89F
THIEF RVR FALL CLOUDY    59  55  88 N10       29.83F
CROOKSTON      TSTM      57  57 100 E12       29.80F
FOSSTON        CLOUDY    64  52  63 SE16G23   29.76F
DETROIT LAKES  LGT RAIN  64  55  72 W12       29.81R
MOORHEAD       RAIN      61  59  94 N5        29.75F
PARK RAPIDS    CLOUDY    65  55  70 SE10      29.80F
MAHNOMEN       MOCLDY    69  53  56 SE21G28   29.73F
$$
MNZ006-009>011-018-025>026-310700-
   North Central Minnesota

CITY           SKY/WX    TMP DP  RH WIND       PRES   REMARKS
BAUDETTE       MOCLDY    59  47  64 E18       29.90F
FLAG ISLAND    CLOUDY    61  48  63 E12G22    29.93F
INTL FALLS     CLOUDY    57  48  72 E12       29.96F
6HR MIN TEMP:  57; 6HR MAX TEMP:  72;

WASKISH        CLOUDY    63  50  63 E15G22    29.87F
BIG FORK       CLOUDY    63  48  59 E7        29.90F
LONGVILLE      CLOUDY    57  55  94 E5        29.85F
GRAND RAPIDS   CLOUDY    64  47  53 NE8       29.89F
CRANE LAKE     PTCLDY    55  46  71 CALM      30.02S
ORR            CLOUDY    59  46  63 E5        29.94F
COOK           CLOUDY    61  48  63 E7        29.97F
WALKER         MOCLDY    64  55  70 E6        29.84F
$$
MNZ012-019>021-037-310700-
   Northeast Minnesota

CITY           SKY/WX    TMP DP  RH WIND       PRES   REMARKS
DULUTH         PTCLDY    53  45  74 E26G36    29.98S
6HR MIN TEMP:  53; 6HR MAX TEMP:  71; 6HR PCP:  0.03;

ELY            CLOUDY    55  45  67 E10       30.03S
HIBBING        MOCLDY    59  44  57 SE18G32   29.95S
EVELETH        MOCLDY    57  45  62 E13G22    29.99S
DULUTH HARBOR  PTCLDY    48  46  93 NE35G41   29.99S
TWO HARBORS    MOCLDY    52  46  82 NE16G22   30.03R
SILVER BAY     PTCLDY    48  45  87 NE12G21   30.04F
GRAND MARAIS     N/A     42  39  89 NE6       30.09F
G MARAIS ARPRT CLEAR     46  39  76 NE10G16   30.09F
$$
MNZ029>031-032-039>041-046>048-054>057-064-310700-
   West Central Minnesota

CITY           SKY/WX    TMP DP  RH WIND       PRES   REMARKS
FERGUS FALLS   TSTM      59  59 100 N8        29.78S
WHEATON        RAIN      63  61  94 W5        29.83R
MORRIS         CLOUDY    70  57  64 W14       29.78R
ALEXANDRIA     CLOUDY    68  55  63 SE16      29.78F
ELBOW LAKE     CLOUDY    64  55  73 NW10G22   29.81R
WADENA         CLOUDY    64  54  68 E13       29.78F
GLENWOOD       CLOUDY    66  57  72 SE14G20   29.79S
APPLETON       CLOUDY    75  55  50 S16G24    29.76R
ORTONVILLE     TSTM      64  57  77 NW9       29.81R
MADISON        CLOUDY    73  55  53 W16G33    29.79R
WILLMAR        TSTM      72  61  68 S7        29.82S
$$
MNZ033>034-036-042>043-049>051-058-059-310700-
   Central Minnesota

CITY           SKY/WX    TMP DP  RH WIND       PRES   REMARKS
ST CLOUD       CLOUDY    69  54  58 SE10      29.83F
6HR MIN TEMP:  69; 6HR MAX TEMP:  79;

SAUK CENTRE    FAIR      67  56  67 SE12      29.80S
PAYNESVILLE    CLOUDY    70  57  61 S18G25    29.82S
AITKIN         CLOUDY    66  48  52 E7        29.85F
PINE RIVER     RAIN      63  55  77 SE9       29.89R
BRAINERD       LGT RAIN  64  58  80 SW9       29.89R
STAPLES        CLOUDY    63  55  77 E6        29.81F
LONG PRAIRIE   MOCLDY    63  55  77 NE10      29.80F
LITTLE FALLS   CLOUDY    66  54  63 CALM      29.83R
LITCHFIELD     MOCLDY    72  57  60 S7        29.84S
BUFFALO        CLOUDY    70  55  59 SE8       29.85F
MAPLE LAKE     CLEAR     70  58  66 SE5       29.85S
HUTCHINSON     CLOUDY    69  60  73 S6        29.86S
$$
MNZ037-044-045-052-053-310700-
   East Central Minnesota

CITY           SKY/WX    TMP DP  RH WIND       PRES   REMARKS
PRINCETON      CLOUDY    66  57  72 E6        29.85F
MORA           PTCLDY    64  52  63 SE6       29.89F
CAMBRIDGE      CLOUDY    73  55  53 SE9       29.84F
RUSH CITY      PTCLDY    66  53  63 SE7       29.88F
MOOSE LAKE     MOCLDY    59  52  77 NE7       29.90F
HINCKLEY       FAIR      64  54  68 E8        29.89F
CLOQUET        PTCLDY    61  43  51 E16G30    29.95F
MCGREGOR       CLOUDY    63  52  67 E9        29.89F
$$
MNZ071>073-080-081-089-090-097-098-310700-
   Southwest Minnesota

CITY           SKY/WX    TMP DP  RH WIND       PRES   REMARKS
MONTEVIDEO     CLOUDY    70  61  73 S14G20    29.79S
GRANITE FALLS  CLOUDY    69  62  77 SE21G28   29.81F
CANBY          CLOUDY    75  59  58 SW17G26   29.82R
MARSHALL       LGT RAIN  66  59  78 S12G21    29.80R
REDWOOD FALLS  LGT RAIN  69  59  70 S14       29.82F
OLIVIA         LGT RAIN  70  63  78 S12G21    29.82S
PIPESTONE      CLOUDY    66  59  77 W15       29.85R
WINDOM         TSTM      64  57  77 CALM      29.86F
WORTHINGTON    CLOUDY    65  58  78 SE17      29.85S
JACKSON        FLURRIES  66  54  63 SE15G22   29.86F
TRACY          TSTM      64  61  90 SE5       29.84F
SLAYTON        RAIN      65  61  87 SE10      29.84F
$$
MNZ065>067-074>077-082>085-091>093-310700-
   South Central Minnesota

CITY           SKY/WX    TMP DP  RH WIND       PRES   REMARKS
MANKATO        CLOUDY    68  54  60 S12G22    29.86F
NEW ULM        CLOUDY    68  55  64 S13       29.85R
ST JAMES       CLOUDY    63  52  67 SE16      29.86F
FAIRMONT       CLOUDY    66  55  68 SE14G22   29.86F
GLENCOE        CLOUDY    69  60  73 SE7       29.84S
FARIBAULT      PTCLDY    68  57  68 SE14      29.89F
OWATONNA       PTCLDY    66  57  72 SE13      29.91F
WASECA         CLOUDY    68  54  60 SE15G23   29.89F
ALBERT LEA     LGT RAIN  66  55  68 S14G25    29.90F
$$
MNZ078>079-086>088-094>096-310700-
   Southeast Minnesota

CITY           SKY/WX    TMP DP  RH WIND       PRES   REMARKS
ROCHESTER      CLOUDY    66  58  75 S13       29.95F
6HR MIN TEMP:  65; 6HR MAX TEMP:  77; 6HR PCP: TRACE;

RED WING       CLOUDY    70  54  56 S6        29.93R
STANTON        MOCLDY    69  57  67 S10G17    29.90F
DODGE CENTER   CLOUDY    66  57  72 S14       29.94F
WINONA         LGT RAIN  70  57  64 S3        29.98R
AUSTIN         LGT RAIN  64  57  77 SE8       29.94F
PRESTON        CLOUDY    64  57  78 S21       29.99F
$$
ABBREVIATIONS USED IN REMARKS
   TC - TEMPERATURES IN CELSIUS
  WCI - WIND CHILL INDEX
   HX - HEAT INDEX
  VSB - VISIBILITY
$$




USA.gov is the U.S. government's official web portal to all federal, state and local government web resources and services.